Location: Augirein
(42.9320°N, 0.9181°E)
Time: 20:00:06
(UTC+00:00)

USA 305 - Pass Details

Date: 20 June 2021
Orbit: 558 x 580 km, 54.0° (Epoch: 13 July)

Event Time Altitude Azimuth Distance (km) Brightness Sun altitude
Exits shadow 01:10:12 48° 127° (SE) 734 3.2 -21.6°
Drops below altitude 10° 01:14:05 10° 61° (ENE) 1,849 6.1 -21.4°
Sets 01:16:23 0° 56° (NE) 2,750 7.2 -21.2°
